Notices

What's New in latest Release from April 7th, 2021:

- Updated Glossary, including Speed of Maximum Gust, and Total Hourly Precipitation

- Updated national and regional climate services offices contacts and prices information

- Addition of station inventory lists for 1981-2010, 1971-2000, and 1961-1990 Normals.

If you haven't already, please take our survey and provide feedback about our website: https://eccc.sondage-survey.ca/f/LanguageSelection.aspx?s=442ca660-fcf1-47c0-95a9-59707d6fd709

Hourly Data Report for July 20, 2016

TORONTO CITY
ONTARIO

43°40'00.000" N
79°24'00.000" W
112.50 m
6158355
71508
XTO

Download Data

Hourly Data (July 2016)
Hourly Data Report for July 20, 2016
TIME
LST
Temp Definition
°C
Dew Point Definition
°C
Rel Hum Definition
%
Precip. Amount Definition
mm

Wind Dir Definition
10's deg

Wind Spd Definition
km/h
Visibility Definition
km
Stn Press Definition
kPa
Hmdx Definition


Wind Chill Definition


Weather Definition


00:00 17.6 9.5 59 0.0 LegendMM LegendMM   100.96     LegendNANA
01:00 16.4 9.6 64 0.0 LegendMM LegendMM   101.01     LegendNANA
02:00 15.7 10.1 70 0.0 LegendMM LegendMM   101.04     LegendNANA
03:00 15.6 10.1 70 0.0 LegendMM LegendMM   101.06     LegendNANA
04:00 14.8 10.1 74 0.0 LegendMM LegendMM   101.03     LegendNANA
05:00 15.5 10.5 72 0.0 LegendMM LegendMM   101.07     LegendNANA
06:00 16.0 10.8 71 0.0 LegendMM LegendMM   101.11     LegendNANA
07:00 18.6 11.3 63 0.0 LegendMM LegendMM   101.10     LegendNANA
08:00 20.3 11.3 56 0.0 LegendMM LegendMM   101.16     LegendNANA
09:00 22.0 11.4 51 0.0 LegendMM LegendMM   101.14     LegendNANA
10:00 23.0 11.2 48 0.0 LegendMM LegendMM   101.11 25   LegendNANA
11:00 23.7 11.0 45 0.0 LegendMM LegendMM   101.08 25   LegendNANA
12:00 24.2 11.4 45 0.0 LegendMM LegendMM   101.06 26   LegendNANA
13:00 25.2 11.3 42 0.0 LegendMM LegendMM   101.00 27   LegendNANA
14:00 25.8 11.2 40 0.0 LegendMM LegendMM   100.96 28   LegendNANA
15:00 26.3 9.1 34 0.0 LegendMM LegendMM   100.89 27   LegendNANA
16:00 26.6 7.6 30 0.0 LegendMM LegendMM   100.83 27   LegendNANA
17:00 26.5 8.3 32 0.0 LegendMM LegendMM   100.78 27   LegendNANA
18:00 25.6 8.6 34 0.0 LegendMM LegendMM   100.74 26   LegendNANA
19:00 24.7 10.2 40 0.0 LegendMM LegendMM   100.74 26   LegendNANA
20:00 22.9 11.2 48 0.0 LegendMM LegendMM   100.74 25   LegendNANA
21:00 22.6 13.6 57 0.0 LegendMM LegendMM   100.74 26   LegendNANA
22:00 22.3 14.5 61 0.0 LegendMM LegendMM   100.74 26   LegendNANA
23:00 21.4 14.9 67 0.0 LegendMM LegendMM   100.71 25   LegendNANA

Notes on Data Quality.

Legend

  • E = Estimated
  • M = Missing
  • NA = Not Available*
  • [empty] = Indicates an unobserved value
Date modified: